SWA3714 KDAL-KBWI

Flight info

Callsign SWA3714
Flight time N/A
Altitude 36500
Route LNDRE5 LOOSE Q34 SITTR CJAAE RAVNN7
Aircraft A20N/M-SDE2E3FGHIRWXY/LB1

Departure

Time 2026-05-07 06:50
Airport Dallas Love Field (KDAL)

Arrival

Time N/A
Airport Baltimore/Washington International Thurgood Marshall Airport (KBWI)
Time Latitude Longitude Altitude Speed Heading
2026-05-07 06:13 32.84627 -96.85224 483 ft 0 kts 135°
2026-05-07 06:40 32.84634 -96.85232 476 ft 2 kts 135°
2026-05-07 06:40 32.84644 -96.85243 479 ft 2 kts 135°
2026-05-07 06:40 32.84654 -96.85255 481 ft 2 kts 135°
2026-05-07 06:40 32.84665 -96.85268 482 ft 2 kts 136°
2026-05-07 06:41 32.84677 -96.85282 474 ft 2 kts 136°
2026-05-07 06:41 32.84689 -96.85296 474 ft 2 kts 133°
2026-05-07 06:41 32.84696 -96.85313 479 ft 2 kts 91°
2026-05-07 06:41 32.84701 -96.85331 477 ft 2 kts 177°
2026-05-07 06:42 32.84718 -96.85328 478 ft 2 kts 199°
2026-05-07 06:42 32.84731 -96.85322 474 ft 1 kts 199°
2026-05-07 06:42 32.84735 -96.85320 479 ft 0 kts 198°
2026-05-07 06:43 32.84734 -96.85321 475 ft 1 kts 198°
2026-05-07 06:43 32.84702 -96.85324 476 ft 8 kts 182°
2026-05-07 06:43 32.84655 -96.85326 479 ft 1 kts 182°
2026-05-07 06:44 32.84639 -96.85333 481 ft 3 kts 219°
2026-05-07 06:44 32.84617 -96.85367 477 ft 7 kts 245°
2026-05-07 06:44 32.84617 -96.85405 481 ft 0 kts 279°
2026-05-07 06:44 32.84617 -96.85417 479 ft 4 kts 269°
2026-05-07 06:45 32.84621 -96.85475 475 ft 9 kts 292°
2026-05-07 06:45 32.84669 -96.85546 478 ft 13 kts 313°
2026-05-07 06:45 32.84736 -96.85630 483 ft 15 kts 313°
2026-05-07 06:45 32.84819 -96.85725 483 ft 18 kts 319°
2026-05-07 06:46 32.84912 -96.85835 483 ft 20 kts 314°
2026-05-07 06:46 32.85019 -96.85952 480 ft 17 kts 317°
2026-05-07 06:46 32.85090 -96.86030 483 ft 15 kts 317°
2026-05-07 06:46 32.85098 -96.86039 483 ft 15 kts 317°
2026-05-07 06:47 32.85174 -96.86135 483 ft 17 kts 315°
2026-05-07 06:47 32.85219 -96.86196 477 ft 7 kts 294°
2026-05-07 06:47 32.85199 -96.86255 474 ft 10 kts 217°
2026-05-07 06:47 32.85189 -96.86264 483 ft 2 kts 216°
2026-05-07 06:48 32.85176 -96.86275 478 ft 7 kts 216°
2026-05-07 06:48 32.85129 -96.86320 476 ft 6 kts 209°
2026-05-07 06:48 32.85091 -96.86290 482 ft 9 kts 134°
2026-05-07 06:48 32.85084 -96.86282 482 ft 0 kts 135°
2026-05-07 06:49 32.85081 -96.86278 482 ft 2 kts 135°
2026-05-07 06:49 32.84937 -96.86108 480 ft 8 kts 136°
2026-05-07 06:49 32.84935 -96.86106 476 ft 3 kts 136°
2026-05-07 06:50 32.84713 -96.85849 481 ft 90 kts 135°
2026-05-07 06:50 32.84090 -96.85106 495 ft 159 kts 133°
2026-05-07 06:50 32.83314 -96.84176 1305 ft 158 kts 132°
2026-05-07 06:50 32.82523 -96.83246 2271 ft 161 kts 128°
2026-05-07 06:51 32.81793 -96.82356 3172 ft 163 kts 127°
2026-05-07 06:51 32.80994 -96.81352 3968 ft 175 kts 129°
2026-05-07 06:51 32.80088 -96.80183 4413 ft 209 kts 130°
2026-05-07 06:51 32.79041 -96.78852 5103 ft 233 kts 133°
2026-05-07 06:52 32.77853 -96.77403 5804 ft 258 kts 134°
2026-05-07 06:52 32.76537 -96.75786 6458 ft 284 kts 135°
2026-05-07 06:52 32.75109 -96.74041 7124 ft 302 kts 137°
2026-05-07 06:52 32.73606 -96.72291 8066 ft 308 kts 139°
2026-05-07 06:53 32.72552 -96.71084 8681 ft 313 kts 139°
2026-05-07 06:53 32.71232 -96.69575 9494 ft 319 kts 140°
2026-05-07 06:53 32.69633 -96.67698 10432 ft 328 kts 136°
2026-05-07 06:53 32.68374 -96.65306 10933 ft 359 kts 113°
2026-05-07 06:54 32.67839 -96.62310 11314 ft 387 kts 92°
2026-05-07 06:54 32.68162 -96.59043 11695 ft 409 kts 73°
2026-05-07 06:54 32.69056 -96.55749 12072 ft 429 kts 64°
2026-05-07 06:54 32.70494 -96.52576 12451 ft 446 kts 54°
2026-05-07 06:55 32.72456 -96.49687 12843 ft 458 kts 40°
2026-05-07 06:55 32.74862 -96.47178 13539 ft 463 kts 34°
2026-05-07 06:55 32.77417 -96.44810 14250 ft 470 kts 33°
2026-05-07 06:55 32.79991 -96.42476 14961 ft 476 kts 33°
2026-05-07 06:56 32.82669 -96.40022 15713 ft 482 kts 33°
2026-05-07 06:56 32.85294 -96.37580 16427 ft 489 kts 33°
2026-05-07 06:56 32.87937 -96.34994 17117 ft 498 kts 39°
2026-05-07 06:56 32.90258 -96.31863 17828 ft 510 kts 51°
2026-05-07 06:57 32.92100 -96.28199 18489 ft 521 kts 63°
2026-05-07 06:57 32.93413 -96.24157 19117 ft 528 kts 71°
2026-05-07 06:57 32.94517 -96.19953 19738 ft 534 kts 72°
2026-05-07 06:57 32.95662 -96.15717 20355 ft 540 kts 70°
2026-05-07 06:58 32.96903 -96.11470 20945 ft 545 kts 69°
2026-05-07 06:58 32.98218 -96.07214 21518 ft 551 kts 68°
2026-05-07 06:58 32.99584 -96.02922 22066 ft 556 kts 68°
2026-05-07 06:58 33.00974 -95.98603 22598 ft 561 kts 68°
2026-05-07 06:59 33.02381 -95.94240 23122 ft 567 kts 68°
2026-05-07 06:59 33.03798 -95.89838 23601 ft 571 kts 68°
2026-05-07 06:59 33.05224 -95.85400 23966 ft 576 kts 68°
2026-05-07 06:59 33.06658 -95.80926 24320 ft 580 kts 68°
2026-05-07 07:00 33.08107 -95.76410 24671 ft 583 kts 68°
2026-05-07 07:00 33.09540 -95.71946 25008 ft 585 kts 68°
2026-05-07 07:00 33.10996 -95.67402 25369 ft 586 kts 68°
2026-05-07 07:00 33.12448 -95.62864 25708 ft 586 kts 69°
2026-05-07 07:01 33.13900 -95.58316 26060 ft 585 kts 69°
2026-05-07 07:01 33.15348 -95.53777 26421 ft 585 kts 69°
2026-05-07 07:01 33.16794 -95.49232 26785 ft 586 kts 69°
2026-05-07 07:01 33.18240 -95.44683 27158 ft 586 kts 69°
2026-05-07 07:02 33.19685 -95.40131 27526 ft 586 kts 69°
2026-05-07 07:02 33.21132 -95.35564 27904 ft 587 kts 69°
2026-05-07 07:02 33.22577 -95.31000 28283 ft 587 kts 69°
2026-05-07 07:02 33.24022 -95.26426 28663 ft 588 kts 69°
2026-05-07 07:03 33.25446 -95.21914 29056 ft 588 kts 69°
2026-05-07 07:03 33.26887 -95.17337 29461 ft 588 kts 69°
2026-05-07 07:03 33.28327 -95.12761 29870 ft 589 kts 69°
2026-05-07 07:03 33.29773 -95.08158 30264 ft 590 kts 69°
2026-05-07 07:04 33.31212 -95.03567 30613 ft 590 kts 69°
2026-05-07 07:04 33.32654 -94.98963 30975 ft 591 kts 69°
2026-05-07 07:04 33.34094 -94.94357 31328 ft 591 kts 70°
2026-05-07 07:04 33.35532 -94.89751 31686 ft 590 kts 70°
2026-05-07 07:05 33.36969 -94.85143 32050 ft 590 kts 70°
2026-05-07 07:05 33.38381 -94.80605 32417 ft 589 kts 70°
2026-05-07 07:05 33.39813 -94.76001 32791 ft 588 kts 70°
2026-05-07 07:05 33.41237 -94.71410 33172 ft 586 kts 70°
2026-05-07 07:06 33.42654 -94.66841 33558 ft 585 kts 70°
2026-05-07 07:06 33.44063 -94.62286 33951 ft 583 kts 70°
2026-05-07 07:06 33.45456 -94.57778 34306 ft 581 kts 70°
2026-05-07 07:06 33.46855 -94.53240 34653 ft 580 kts 70°
2026-05-07 07:07 33.48248 -94.48716 35004 ft 578 kts 70°
2026-05-07 07:07 33.49636 -94.44197 35356 ft 576 kts 70°
2026-05-07 07:07 33.51016 -94.39701 35722 ft 573 kts 70°
2026-05-07 07:07 33.52389 -94.35218 36087 ft 570 kts 69°
2026-05-07 07:08 33.53754 -94.30756 36452 ft 568 kts 69°
2026-05-07 07:08 33.55115 -94.26304 36591 ft 571 kts 69°
2026-05-07 07:08 33.57814 -94.17319 36613 ft 582 kts 70°
2026-05-07 07:09 33.60512 -94.08224 36618 ft 592 kts 70°
2026-05-07 07:09 33.63292 -93.98845 36614 ft 599 kts 70°
2026-05-07 07:10 33.66094 -93.89375 36618 ft 604 kts 70°
2026-05-07 07:10 33.68872 -93.79956 36614 ft 586 kts 70°
2026-05-07 07:11 33.70217 -93.75383 36613 ft 570 kts 70°
2026-05-07 07:11 33.71513 -93.70970 36613 ft 569 kts 70°
2026-05-07 07:11 33.74171 -93.61908 36612 ft 578 kts 70°
2026-05-07 07:12 33.76832 -93.52801 36612 ft 576 kts 70°
2026-05-07 07:12 33.79481 -93.43706 36611 ft 577 kts 70°
2026-05-07 07:13 33.82111 -93.34652 36606 ft 577 kts 70°
2026-05-07 07:13 33.84754 -93.25521 36610 ft 577 kts 70°
2026-05-07 07:14 33.87383 -93.16410 36609 ft 577 kts 70°
2026-05-07 07:14 33.90091 -93.07315 36610 ft 576 kts 64°
2026-05-07 07:15 33.93380 -92.98509 36613 ft 576 kts 64°
2026-05-07 07:15 33.96642 -92.89751 36610 ft 576 kts 64°
2026-05-07 07:16 33.99912 -92.80933 36607 ft 576 kts 64°
2026-05-07 07:16 34.03181 -92.72086 36607 ft 576 kts 64°
2026-05-07 07:17 34.06440 -92.63247 36596 ft 576 kts 64°
2026-05-07 07:17 34.09715 -92.54469 36599 ft 577 kts 64°
2026-05-07 07:18 34.13011 -92.45645 36599 ft 577 kts 64°
2026-05-07 07:18 34.15749 -92.38282 36594 ft 577 kts 64°
2026-05-07 07:19 34.19028 -92.29434 36596 ft 577 kts 64°
2026-05-07 07:19 34.22295 -92.20586 36596 ft 577 kts 64°
2026-05-07 07:20 34.25561 -92.11720 36592 ft 577 kts 64°
2026-05-07 07:20 34.28821 -92.02855 36602 ft 577 kts 64°
2026-05-07 07:21 34.32057 -91.94024 36597 ft 577 kts 64°
2026-05-07 07:21 34.35308 -91.85129 36598 ft 577 kts 64°
2026-05-07 07:22 34.38551 -91.76231 36600 ft 578 kts 64°
2026-05-07 07:22 34.41788 -91.67323 36603 ft 578 kts 64°
2026-05-07 07:23 34.45022 -91.58400 36602 ft 578 kts 64°
2026-05-07 07:23 34.48247 -91.49475 36609 ft 578 kts 64°
2026-05-07 07:24 34.51467 -91.40541 36600 ft 578 kts 64°
2026-05-07 07:24 34.54682 -91.31597 36596 ft 578 kts 64°
2026-05-07 07:25 34.59478 -91.18205 36589 ft 578 kts 64°
2026-05-07 07:26 34.62676 -91.09243 36586 ft 579 kts 64°
2026-05-07 07:26 34.65878 -91.00247 36582 ft 579 kts 64°
2026-05-07 07:27 34.69062 -90.91275 36573 ft 579 kts 65°
2026-05-07 07:27 34.72240 -90.82293 36572 ft 579 kts 65°
2026-05-07 07:28 34.75401 -90.73334 36565 ft 579 kts 65°
2026-05-07 07:28 34.78573 -90.64319 36568 ft 579 kts 65°
2026-05-07 07:29 34.81734 -90.55309 36566 ft 579 kts 65°
2026-05-07 07:29 34.84900 -90.46260 36569 ft 579 kts 65°
2026-05-07 07:30 34.88048 -90.37237 36569 ft 579 kts 65°
2026-05-07 07:30 34.91174 -90.28249 36563 ft 579 kts 65°
2026-05-07 07:31 34.94314 -90.19196 36572 ft 580 kts 65°
2026-05-07 07:31 34.97447 -90.10137 36569 ft 580 kts 65°
2026-05-07 07:32 35.00578 -90.01060 36571 ft 580 kts 65°
2026-05-07 07:32 35.03751 -89.92004 36573 ft 580 kts 64°
2026-05-07 07:33 35.07005 -89.82996 36573 ft 580 kts 64°
2026-05-07 07:33 35.10251 -89.73959 36567 ft 580 kts 64°
2026-05-07 07:34 35.13454 -89.64982 36567 ft 581 kts 64°
2026-05-07 07:34 35.16694 -89.55869 36564 ft 581 kts 64°
2026-05-07 07:35 35.19886 -89.46867 36561 ft 581 kts 64°
2026-05-07 07:35 35.23094 -89.37793 36564 ft 581 kts 64°
2026-05-07 07:36 35.26302 -89.28693 36565 ft 581 kts 64°
2026-05-07 07:36 35.29497 -89.19602 36559 ft 581 kts 64°
2026-05-07 07:37 35.32671 -89.10545 36561 ft 582 kts 64°
2026-05-07 07:37 35.35854 -89.01438 36568 ft 582 kts 64°
2026-05-07 07:38 35.39039 -88.92304 36573 ft 582 kts 64°
2026-05-07 07:38 35.42221 -88.83149 36575 ft 583 kts 64°
2026-05-07 07:39 35.45392 -88.73998 36572 ft 583 kts 64°
2026-05-07 07:39 35.48538 -88.64893 36566 ft 583 kts 64°
2026-05-07 07:40 35.51697 -88.55723 36560 ft 583 kts 64°
2026-05-07 07:40 35.54854 -88.46531 36560 ft 583 kts 64°
2026-05-07 07:41 35.57981 -88.37398 36563 ft 583 kts 65°
2026-05-07 07:41 35.61121 -88.28192 36571 ft 583 kts 65°
2026-05-07 07:42 35.64251 -88.18984 36573 ft 583 kts 65°
2026-05-07 07:42 35.67376 -88.09767 36571 ft 584 kts 65°
2026-05-07 07:43 35.70495 -88.00541 36565 ft 584 kts 65°
2026-05-07 07:43 35.73603 -87.91316 36554 ft 584 kts 65°
2026-05-07 07:44 35.76695 -87.82112 36542 ft 584 kts 65°
2026-05-07 07:44 35.79791 -87.72850 36536 ft 584 kts 65°
2026-05-07 07:45 35.82849 -87.63571 36537 ft 584 kts 65°
2026-05-07 07:45 35.85902 -87.54282 36539 ft 585 kts 65°
2026-05-07 07:46 35.88952 -87.44979 36537 ft 585 kts 65°
2026-05-07 07:46 35.91996 -87.35672 36535 ft 585 kts 66°
2026-05-07 07:47 35.95032 -87.26359 36538 ft 585 kts 66°
2026-05-07 07:47 35.98066 -87.17023 36531 ft 585 kts 66°
2026-05-07 07:48 36.01074 -87.07738 36530 ft 585 kts 66°
2026-05-07 07:48 36.04090 -86.98397 36527 ft 585 kts 66°
2026-05-07 07:49 36.07104 -86.89034 36525 ft 586 kts 66°
2026-05-07 07:49 36.10105 -86.79682 36560 ft 586 kts 66°
2026-05-07 07:50 36.13090 -86.70349 36564 ft 586 kts 66°
2026-05-07 07:50 36.16110 -86.60974 36565 ft 586 kts 66°
2026-05-07 07:51 36.19157 -86.51616 36558 ft 586 kts 66°
2026-05-07 07:51 36.22196 -86.42237 36565 ft 586 kts 66°
2026-05-07 07:52 36.25203 -86.32911 36567 ft 586 kts 66°
2026-05-07 07:52 36.28224 -86.23508 36564 ft 586 kts 66°
2026-05-07 07:53 36.31232 -86.14115 36558 ft 586 kts 66°
2026-05-07 07:53 36.34237 -86.04704 36552 ft 587 kts 66°
2026-05-07 07:54 36.37235 -85.95280 36550 ft 587 kts 66°
2026-05-07 07:54 36.40227 -85.85847 36542 ft 587 kts 67°
2026-05-07 07:55 36.43214 -85.76401 36548 ft 587 kts 67°
2026-05-07 07:55 36.46175 -85.67003 36544 ft 588 kts 67°
2026-05-07 07:56 36.49152 -85.57526 36548 ft 588 kts 67°
2026-05-07 07:56 36.52114 -85.48064 36538 ft 588 kts 67°
2026-05-07 07:57 36.55070 -85.38589 36543 ft 588 kts 67°
2026-05-07 07:57 36.58026 -85.29085 36553 ft 588 kts 67°
2026-05-07 07:58 36.60952 -85.19648 36550 ft 588 kts 67°
2026-05-07 07:58 36.63893 -85.10129 36543 ft 589 kts 68°
2026-05-07 07:59 36.66825 -85.00597 36557 ft 589 kts 68°
2026-05-07 07:59 36.69753 -84.91051 36557 ft 590 kts 68°
2026-05-07 08:00 36.72677 -84.81483 36562 ft 590 kts 68°
2026-05-07 08:00 36.75590 -84.71922 36555 ft 590 kts 68°
2026-05-07 08:01 36.78500 -84.62338 36558 ft 591 kts 68°
2026-05-07 08:01 36.81389 -84.52789 36531 ft 591 kts 68°
2026-05-07 08:02 36.84289 -84.43172 36522 ft 591 kts 68°
2026-05-07 08:02 36.87182 -84.33543 36524 ft 591 kts 68°
2026-05-07 08:03 36.90032 -84.24027 36527 ft 591 kts 68°
2026-05-07 08:03 36.92906 -84.14399 36519 ft 592 kts 69°
2026-05-07 08:04 36.95779 -84.04738 36522 ft 592 kts 69°
2026-05-07 08:04 36.98631 -83.95114 36522 ft 592 kts 69°
2026-05-07 08:05 37.01493 -83.85422 36516 ft 593 kts 69°
2026-05-07 08:05 37.04345 -83.75730 36513 ft 593 kts 69°
2026-05-07 08:06 37.07191 -83.66023 36509 ft 593 kts 69°
2026-05-07 08:06 37.10010 -83.56376 36508 ft 593 kts 69°
2026-05-07 08:07 37.12842 -83.46654 36509 ft 593 kts 69°
2026-05-07 08:07 37.15662 -83.36930 36515 ft 593 kts 69°
2026-05-07 08:08 37.18470 -83.27215 36521 ft 593 kts 69°
2026-05-07 08:08 37.20810 -83.19097 36516 ft 594 kts 69°
2026-05-07 08:09 37.24069 -83.07747 36514 ft 594 kts 69°
2026-05-07 08:09 37.26411 -82.99563 36522 ft 594 kts 69°
2026-05-07 08:10 37.29178 -82.89853 36520 ft 595 kts 69°
2026-05-07 08:10 37.31963 -82.80048 36515 ft 595 kts 69°
2026-05-07 08:11 37.34744 -82.70222 36524 ft 596 kts 69°
2026-05-07 08:11 37.37497 -82.60462 36529 ft 596 kts 69°
2026-05-07 08:12 37.40262 -82.50621 36534 ft 596 kts 70°
2026-05-07 08:12 37.43017 -82.40777 36520 ft 596 kts 70°
2026-05-07 08:13 37.45763 -82.30928 36514 ft 597 kts 70°
2026-05-07 08:13 37.48504 -82.21065 36504 ft 596 kts 70°
2026-05-07 08:14 37.51241 -82.11183 36497 ft 596 kts 70°
2026-05-07 08:14 37.53946 -82.01379 36490 ft 596 kts 70°
2026-05-07 08:15 37.56660 -81.91504 36493 ft 596 kts 70°
2026-05-07 08:15 37.59363 -81.81624 36487 ft 596 kts 70°
2026-05-07 08:16 37.62058 -81.71733 36494 ft 597 kts 70°
2026-05-07 08:16 37.64753 -81.61810 36493 ft 596 kts 70°
2026-05-07 08:17 37.67415 -81.51966 36495 ft 596 kts 70°
2026-05-07 08:17 37.70087 -81.42054 36498 ft 596 kts 70°
2026-05-07 08:18 37.72752 -81.32133 36505 ft 597 kts 70°
2026-05-07 08:18 37.75411 -81.22191 36506 ft 597 kts 70°
2026-05-07 08:19 37.77923 -81.12194 36511 ft 597 kts 78°
2026-05-07 08:19 37.79252 -81.01848 36509 ft 597 kts 84°
2026-05-07 08:20 37.80460 -80.91463 36499 ft 596 kts 84°
2026-05-07 08:20 37.81650 -80.81158 36484 ft 594 kts 84°
2026-05-07 08:21 37.82834 -80.70794 36479 ft 595 kts 84°
2026-05-07 08:21 37.83422 -80.65619 36349 ft 595 kts 84°
2026-05-07 08:21 37.84008 -80.60431 35985 ft 595 kts 84°
2026-05-07 08:21 37.84592 -80.55249 35623 ft 595 kts 84°
2026-05-07 08:22 37.85172 -80.50072 35256 ft 594 kts 84°
2026-05-07 08:22 37.85750 -80.44891 34902 ft 595 kts 84°
2026-05-07 08:22 37.86541 -80.39740 34549 ft 597 kts 74°